SCP
3 3 2 2 3 3 4 5 7 8 7 6 5 5 5 5 5 5 3 3 3 3 2 2 2 2 2 3 3 3 3 3 3 3 3 4 4 4 3 2 2 2 2
3 3 3 3 3 3 4 6 8 10 9 7 7 7 6 6 6 5 4 3 3 3 3 3 3 3 3 4 4 4 4 4 3 3 3 4 5 4 4 3 2 2 2
3 3 2 3 4 4 5 9 11 11 10 10 11 9 7 6 7 6 5 4 4 4 3 3 4 4 4 5 5 5 5 5 5 5 5 6 6 5 4 3 3 2 2
4 3 3 5 6 7 9 13 13 11 10 12 14 13 10 8 7 7 6 5 5 4 4 4 4 4 4 5 6 7 7 7 7 7 6 6 7 6 5 4 3 3 3
4 4 5 7 8 10 13 15 13 9 8 11 15 16 13 9 6 6 6 6 5 4 4 4 4 3 4 4 4 6 7 8 8 8 7 7 7 6 5 5 4 4 3
5 5 7 9 11 14 16 13 9 6 6 8 12 13 11 7 4 4 5 5 5 4 4 3 3 3 3 3 3 3 4 5 7 7 7 6 7 6 6 5 4 4 4
6 6 8 11 15 18 15 10 6 5 5 5 6 6 5 3 2 2 4 5 5 4 3 4 3 3 3 4 3 3 3 3 5 7 7 6 7 7 6 5 4 4 4
7 7 9 12 17 17 13 9 7 6 5 4 4 3 3 3 2 2 3 4 5 4 4 4 5 4 4 5 5 4 4 3 3 5 6 6 7 7 6 6 5 5 5
7 8 11 14 16 15 13 11 9 8 6 5 4 4 4 3 2 1 2 4 4 4 4 5 5 5 4 4 5 5 5 4 4 4 4 5 5 6 6 6 7 7 7
8 9 11 13 16 16 15 13 10 9 7 6 5 5 4 4 3 1 2 3 4 4 5 5 4 4 3 3 3 4 4 4 4 3 3 4 4 4 5 6 7 7 8
8 8 9 12 15 17 17 13 10 8 7 6 5 5 5 5 3 1 1 3 4 4 5 5 4 2 1 1 2 2 3 3 3 3 3 3 4 5 4 5 6 6 6
7 8 9 12 15 16 14 11 8 7 6 6 6 6 6 5 3 2 1 2 3 4 4 4 3 2 0 0 0 1 1 1 2 2 2 3 4 5 5 5 6 5 5
8 9 12 15 16 14 10 8 7 7 6 6 7 6 6 6 4 3 2 1 2 3 4 4 3 1 0 0 0 0 1 2 2 2 2 2 4 5 7 7 6 5 4
9 10 12 14 13 10 8 7 8 8 7 6 7 7 6 6 5 4 3 2 2 3 4 4 2 1 0 0 0 1 2 3 4 3 3 4 5 6 7 7 6 4 3
8 9 10 9 8 7 7 7 8 8 7 6 7 7 6 5 5 5 4 3 3 3 5 4 3 2 1 1 1 2 3 4 5 5 6 6 6 6 6 5 4 3 3
7 7 7 7 7 6 7 8 8 7 5 5 6 6 5 4 3 3 2 2 2 2 3 4 3 3 2 2 2 3 3 4 5 6 7 7 6 5 4 4 4 3 3
5 5 6 6 7 7 7 9 9 7 5 4 4 4 3 2 1 1 0 0 0 1 1 2 3 3 3 3 3 3 4 4 5 5 6 6 5 4 3 3 3 3 3
5 5 6 6 7 7 8 9 9 8 6 4 2 1 1 0 0 0 0 0 0 0 1 1 2 2 3 3 3 3 4 4 4 5 4 4 3 3 3 2 2 2 2
6 6 6 6 7 8 9 10 10 8 7 5 2 1 0 0 0 0 0 1 1 1 0 1 1 1 2 3 3 3 3 4 4 4 4 3 3 3 3 2 2 2 2
7 6 5 6 7 9 10 11 10 7 6 5 3 1 1 1 1 0 0 1 1 0 0 0 1 1 1 2 3 3 3 3 3 3 3 3 3 3 3 2 2 2 2
6 5 5 7 9 10 10 9 8 6 5 4 3 1 1 1 1 0 0 0 0 0 0 1 1 1 1 1 2 2 2 2 2 2 2 2 3 3 3 3 2 3 3
7 7 8 9 10 10 9 7 7 6 5 4 3 1 1 1 1 0 0 0 0 0 0 1 1 0 0 0 1 1 1 1 1 2 2 2 2 3 3 3 3 3 3
7 9 10 10 9 8 7 7 6 6 6 4 3 1 1 1 1 0 0 1 0 0 0 0 0 0 0 0 0 0 0 0 0 1 1 1 2 2 3 3 3 3 3
6 7 8 7 7 6 6 6 6 6 6 4 3 2 1 1 1 0 1 1 1 0 0 0 0 0 0 0 0 0 0 0 0 0 1 1 1 2 3 3 3 3 3
5 5 5 5 5 5 5 5 6 6 5 4 3 2 1 1 0 0 0 1 0 0 0 0 0 0 0 0 0 0 0 0 0 0 0 0 1 2 3 3 2 2 2
6 5 5 5 4 3 4 5 5 4 4 3 2 2 1 1 0 0 0 0 0 0 0 0 0 0 0 0 0 0 0 0 0 0 0 0 1 2 2 2 2 1 1
Wind_Speed
8 7 6 6 6 6 5 5 4 3 3 3 3 3 3 3 3 3 4 3 4 3 3 3 3 3 3 3 3 3 3 3 4 4 3 2 3 4 2 3 4 4 4
8 8 7 6 6 6 6 5 5 4 5 4 4 4 4 3 3 4 4 4 4 4 3 3 3 3 3 4 3 4 3 4 5 5 4 3 3 4 3 5 4 4 4
7 8 7 7 7 6 6 5 5 5 5 4 4 4 4 3 3 4 4 4 4 3 3 3 3 3 4 3 4 4 4 4 4 5 5 3 3 3 4 4 4 4 5
7 7 7 7 6 6 6 5 5 5 5 5 4 4 4 4 4 4 4 3 3 3 3 3 3 4 4 4 4 4 5 5 5 6 5 4 3 3 4 4 4 3 4
6 7 7 6 6 6 6 5 5 5 5 5 5 4 4 4 4 3 3 4 3 3 3 3 3 2 3 4 5 4 4 5 5 5 5 4 4 3 3 4 4 4 4
6 6 6 6 6 6 6 5 5 5 5 5 5 5 5 4 2 2 3 3 3 3 3 3 3 2 2 3 3 4 5 5 6 5 5 5 5 4 4 5 5 5 5
6 6 6 6 6 6 6 5 5 5 5 5 5 5 4 3 3 4 4 3 3 3 3 3 4 2 3 3 3 4 4 5 5 7 7 6 5 4 5 6 5 6 6
5 5 5 5 5 5 6 6 5 5 5 5 4 4 4 3 5 5 5 5 4 4 4 4 4 3 3 3 4 3 4 3 4 5 5 6 5 5 5 7 6 6 6
5 4 4 5 5 5 5 5 5 5 5 5 5 5 4 3 5 6 6 5 4 5 4 4 4 3 1 2 3 4 4 4 2 2 3 4 4 4 5 5 5 6 5
4 4 4 4 5 5 5 4 4 4 4 5 4 5 4 4 4 6 6 4 4 4 4 3 3 2 2 2 4 4 4 4 4 3 3 4 4 3 5 5 6 6 5
3 3 4 4 5 5 4 4 4 4 4 4 4 4 4 3 5 5 5 4 3 4 3 3 2 3 3 3 4 3 4 5 5 4 4 3 2 2 2 2 3 5 5
3 3 4 4 4 3 4 4 4 4 4 4 4 3 3 3 4 5 6 4 4 4 3 2 1 3 3 3 3 2 4 6 4 4 4 3 3 3 2 3 3 4 5
4 4 3 3 3 3 3 4 4 4 4 3 3 3 3 2 3 5 6 4 4 3 2 1 1 3 3 3 3 4 5 4 4 4 4 3 3 3 3 2 2 3 4
3 3 3 3 3 2 2 3 2 2 3 3 3 3 3 2 2 2 3 3 4 3 2 3 5 5 4 2 3 4 4 3 4 4 4 3 3 3 3 3 3 3 3
3 3 3 2 2 2 2 0 2 1 1 2 2 2 3 3 2 2 2 2 2 1 1 2 2 2 2 2 3 3 3 3 3 4 4 4 3 3 3 3 3 4 4
3 3 2 2 2 2 2 1 4 2 2 2 2 2 1 0 3 3 2 1 2 3 3 3 3 3 3 3 3 3 3 3 3 3 4 4 4 4 3 3 3 3 4
2 2 2 2 2 2 2 2 2 2 3 2 1 1 2 3 4 4 3 3 4 5 4 3 3 3 3 3 3 4 3 2 2 3 3 3 3 4 4 3 3 3 4
2 2 2 2 2 2 2 2 2 2 2 1 1 3 4 5 5 5 4 3 3 4 4 3 3 3 3 4 4 4 3 3 2 3 3 3 4 4 4 4 4 4 5
2 1 1 1 1 2 2 2 2 2 2 2 1 2 3 4 5 5 6 3 3 3 3 3 3 4 3 3 4 3 3 3 3 3 3 3 4 4 4 4 4 4 5
0 1 1 1 2 2 1 1 1 2 2 2 2 1 2 2 2 3 4 3 3 3 3 3 3 3 3 3 3 3 3 3 3 3 3 3 3 4 4 5 5 4 4
0 1 1 2 1 1 1 1 1 1 2 2 1 2 1 2 2 2 2 2 2 2 2 2 2 2 2 2 3 3 3 3 3 3 3 3 4 4 4 4 4 4 4
1 1 1 0 0 0 1 1 1 1 1 1 1 3 3 3 2 2 2 2 1 1 1 2 2 2 2 2 2 3 3 3 3 3 3 4 4 4 4 3 4 4 4
0 1 1 1 1 1 2 1 1 1 1 1 1 2 2 1 1 1 1 1 1 1 1 1 2 2 2 2 2 2 2 3 3 3 4 4 4 4 4 4 4 5 4
0 0 1 1 1 1 0 0 0 1 1 1 1 1 1 1 1 1 1 1 1 1 1 1 1 2 2 3 2 2 2 3 4 3 5 5 5 4 3 4 4 5 4
0 0 1 1 1 1 1 0 0 1 1 1 1 1 1 1 0 0 0 0 0 1 1 1 1 1 2 2 3 3 3 3 3 4 4 4 4 4 4 4 4 4 4
1 1 1 1 1 1 1 1 1 1 1 0 1 1 1 1 0 0 0 0 1 1 1 1 1 2 2 3 3 4 3 2 3 4 4 3 3 3 3 3 4 4 4
Wind_Direction
188 187 192 189 192 197 203 205 205 206 200 207 208 211 216 214 211 215 228 219 226 233 238 237 251 276 280 279 275 271 271 273 276 286 297 289 263 275 271 258 241 234 200
185 185 189 190 193 199 202 204 200 201 204 203 206 210 215 213 216 221 231 228 228 231 237 242 252 252 259 274 278 275 276 279 279 286 289 282 268 260 265 264 260 249 248
182 186 190 194 195 202 207 204 202 202 207 211 213 217 221 220 219 222 229 231 231 232 235 240 248 256 261 271 275 278 276 274 276 277 279 287 279 272 264 256 258 263 261
183 188 192 197 199 202 204 202 204 206 207 208 210 213 217 220 220 217 214 222 228 232 241 247 248 254 261 266 266 271 279 280 271 271 274 273 272 270 269 270 263 249 261
189 195 195 194 197 202 203 203 202 208 212 209 212 211 210 214 219 215 215 216 223 231 239 250 254 274 307 290 288 285 281 277 276 275 277 278 280 285 280 278 278 278 265
196 202 195 195 197 201 202 204 204 210 216 214 215 214 214 223 166 187 221 209 217 229 236 248 246 220 235 244 272 287 295 284 288 287 280 282 284 284 288 282 285 285 282
197 201 198 200 203 202 204 203 205 208 211 214 214 215 218 213 160 175 210 218 222 233 237 246 257 247 250 259 239 230 243 251 266 278 286 289 287 292 293 281 277 281 286
196 201 203 206 204 201 204 206 207 208 213 217 217 218 219 204 176 186 204 217 228 229 231 239 249 257 266 279 275 280 279 274 265 261 274 283 292 298 279 276 276 268 263
198 202 201 205 204 204 209 210 208 207 210 216 218 219 217 199 184 191 206 216 220 223 225 229 238 242 270 287 270 277 285 288 267 255 264 270 290 292 289 279 276 271 273
200 201 200 204 206 204 206 207 203 203 210 219 217 216 213 202 176 184 206 222 219 221 218 217 211 231 206 239 253 262 275 289 295 283 248 241 252 248 242 267 281 276 281
204 203 206 209 212 209 202 201 201 205 208 217 214 210 200 189 174 181 209 235 234 236 239 233 196 162 202 235 259 268 280 283 278 275 271 268 262 262 263 270 289 287 286
205 209 214 214 218 207 204 205 206 206 204 208 203 206 195 182 183 191 203 226 261 243 250 252 177 161 207 232 252 282 278 274 270 276 280 285 288 290 295 295 290 286 284
207 208 209 209 212 207 207 209 209 206 214 213 207 209 204 193 180 181 186 196 220 239 253 94 145 181 219 222 221 245 255 264 276 277 278 284 295 309 300 287 274 267 263
214 213 203 199 198 193 209 216 218 219 225 224 222 221 209 199 195 194 185 176 182 203 203 156 178 201 228 245 234 239 254 272 279 277 283 289 292 287 285 294 293 285 276
214 219 217 208 187 187 197 251 232 262 270 249 242 234 223 219 203 178 206 203 217 186 199 207 209 205 226 239 245 254 266 262 262 271 276 277 280 285 287 291 293 295 293
205 208 222 214 192 198 177 138 49 54 90 80 3 290 259 185 152 162 165 147 148 166 204 216 224 226 233 241 246 245 251 263 270 270 270 275 276 277 281 285 289 293 296
213 222 236 224 208 210 204 200 179 94 91 115 159 209 199 170 169 175 166 158 173 186 216 221 228 238 246 249 254 259 258 258 273 274 278 279 280 282 283 285 286 290 294
222 213 238 233 221 211 213 225 211 205 200 181 145 168 178 178 180 179 166 166 191 207 231 233 236 235 241 252 258 264 271 270 267 273 276 278 277 278 280 284 288 296 292
224 216 240 258 242 225 215 223 216 215 207 190 176 148 160 162 169 177 181 208 218 231 246 247 247 247 245 253 263 266 271 273 277 278 278 282 284 284 286 288 287 287 283
238 54 276 245 232 221 218 222 230 216 202 193 185 162 160 181 184 183 204 222 235 241 250 253 256 263 261 260 263 264 267 271 274 275 283 282 280 280 281 284 287 288 290
216 165 224 250 238 217 207 213 221 224 217 201 176 122 192 220 203 198 215 225 247 252 254 263 262 257 261 268 271 269 272 272 273 278 281 280 279 279 281 283 285 282 285
206 217 208 201 259 222 218 222 223 220 205 195 162 148 187 225 214 210 221 238 258 283 285 273 271 276 280 272 273 276 279 284 284 282 279 279 278 275 273 273 278 284 285
189 186 168 136 148 168 209 215 210 206 182 171 160 156 177 219 223 212 232 250 265 286 306 307 302 308 319 309 298 293 293 294 290 288 286 280 276 271 274 282 284 281 280
214 172 138 127 151 195 215 228 173 151 144 137 161 164 167 194 217 219 248 254 266 291 300 293 299 326 333 321 317 317 330 321 301 282 284 286 282 279 281 283 284 281 278
2 124 125 129 125 103 80 78 114 130 134 162 179 159 146 169 195 199 249 283 304 311 305 295 299 308 323 324 326 333 1 357 325 304 278 277 278 281 285 287 289 289 284
44 61 81 85 81 75 76 70 86 113 127 117 80 69 61 58 52 58 48 296 292 281 285 292 325 329 322 315 344 6 14 351 324 307 287 274 277 284 288 283 286 289 291